HAWK-3A

Last updated on Fri Dec 29 2023 00:03:29 GMT+0000 (Coordinated Universal Time)

1 48957U 21059CG 23361.89076419 .00009181 00000+0 37798-3 0 9994 2 48957 97.6199 139.3316 0013185 327.3963 32.6458 15.24278492138759
UTC large
Height (km)
Speed (km/s)
/
Latitude / Longitude
Inclination (degrees)
Orbital Period (minutes)
Azimuth
Elevation
Range (km)
Doppler Factor

Next 0 passes for location: London (51.5072 / 0.1276)

Sorry there are no passes over London.